TimeEDT,TemperatureF,Dew PointF,Humidity,Sea Level PressureIn,VisibilityMPH,Wind Direction,Wind SpeedMPH,Gust SpeedMPH,PrecipitationIn,Events,Conditions,WindDirDegrees,DateUTC
12:22 AM,60.8,60.8,100,29.82,5.0,SSE,6.9,-,0.00,,Overcast,150,2013-03-24 04:22:00
12:53 AM,62.1,61.0,96,29.79,10.0,SE,8.1,-,0.00,,Overcast,140,2013-03-24 04:53:00
1:53 AM,63.0,62.1,97,29.77,10.0,SSE,9.2,-,N/A,,Overcast,160,2013-03-24 05:53:00
2:53 AM,64.0,63.0,96,29.75,10.0,SSE,10.4,-,N/A,,Overcast,160,2013-03-24 06:53:00
3:53 AM,64.0,63.0,96,29.71,10.0,South,11.5,-,N/A,,Mostly Cloudy,170,2013-03-24 07:53:00
4:53 AM,64.0,63.0,96,29.68,10.0,SSE,11.5,-,N/A,,Mostly Cloudy,160,2013-03-24 08:53:00
5:53 AM,64.9,64.0,97,29.65,10.0,South,15.0,-,N/A,,Mostly Cloudy,180,2013-03-24 09:53:00
6:53 AM,66.0,64.9,96,29.65,9.0,South,10.4,-,0.01,,Overcast,190,2013-03-24 10:53:00
7:53 AM,66.0,66.0,100,29.63,7.0,South,12.7,18.4,0.00,,Overcast,180,2013-03-24 11:53:00
8:53 AM,69.1,66.9,93,29.61,7.0,South,17.3,-,N/A,,Overcast,180,2013-03-24 12:53:00
9:53 AM,72.0,69.1,91,29.61,8.0,SSW,18.4,26.5,N/A,,Overcast,200,2013-03-24 13:53:00
10:12 AM,71.6,69.8,94,29.63,9.0,SW,15.0,21.9,0.00,Rain-Thunderstorm,Light Thunderstorms and Rain,220,2013-03-24 14:12:00
10:53 AM,72.0,69.1,91,29.64,3.0,WSW,9.2,-,0.03,Rain-Thunderstorm,Heavy Thunderstorms and Rain,240,2013-03-24 14:53:00
11:33 AM,71.6,68.0,88,29.63,10.0,SW,10.4,-,0.03,Thunderstorm,Thunderstorm,220,2013-03-24 15:33:00
11:53 AM,71.1,69.1,93,29.63,1.2,WSW,10.4,-,0.24,Rain-Thunderstorm,Heavy Thunderstorms and Rain,250,2013-03-24 15:53:00
12:08 PM,71.6,69.8,94,29.63,5.0,WSW,18.4,24.2,0.05,Rain-Thunderstorm,Light Thunderstorms and Rain,240,2013-03-24 16:08:00
12:09 PM,71.6,69.8,94,29.63,5.0,WSW,18.4,24.2,0.05,Rain-Thunderstorm,Light Thunderstorms and Rain,240,2013-03-24 16:09:00
12:23 PM,71.6,69.8,94,29.64,10.0,SW,12.7,-,0.06,Rain-Thunderstorm,Light Thunderstorms and Rain,220,2013-03-24 16:23:00
12:53 PM,72.0,70.0,93,29.62,10.0,WSW,11.5,-,0.06,Rain,Light Rain,240,2013-03-24 16:53:00
1:53 PM,75.0,71.1,87,29.59,9.0,SW,18.4,24.2,0.00,,Mostly Cloudy,230,2013-03-24 17:53:00
2:53 PM,79.0,69.1,72,29.55,8.0,WSW,20.7,26.5,N/A,,Scattered Clouds,240,2013-03-24 18:53:00
3:53 PM,82.0,66.0,58,29.55,10.0,West,16.1,25.3,N/A,,Scattered Clouds,260,2013-03-24 19:53:00
4:53 PM,84.0,63.0,49,29.54,10.0,WSW,21.9,28.8,N/A,,Partly Cloudy,250,2013-03-24 20:53:00
5:53 PM,84.0,60.1,44,29.53,10.0,WSW,19.6,27.6,N/A,,Clear,240,2013-03-24 21:53:00
6:53 PM,82.0,60.1,47,29.55,10.0,WSW,18.4,-,N/A,,Partly Cloudy,240,2013-03-24 22:53:00
7:53 PM,78.1,62.1,58,29.58,10.0,SW,16.1,-,N/A,,Partly Cloudy,230,2013-03-24 23:53:00
8:53 PM,75.0,62.1,64,29.60,10.0,SW,15.0,-,N/A,,Clear,220,2013-03-25 00:53:00
9:53 PM,73.0,62.1,68,29.61,10.0,SW,12.7,-,N/A,,Partly Cloudy,220,2013-03-25 01:53:00
10:53 PM,71.1,62.1,73,29.62,10.0,SSW,13.8,-,N/A,,Clear,210,2013-03-25 02:53:00
11:53 PM,69.1,60.1,73,29.63,10.0,SW,15.0,-,N/A,,Clear,220,2013-03-25 03:53:00